Location: *
(39.6167°S, 171.5333°W)
Time: 05:16:25
(UTC+00:00)

MOS 1 Rocket - Pass Details

Date: 13 May 2021
Orbit: 614 x 830 km, 97.4° (Epoch: 16 June)

Event Time Altitude Azimuth Distance (km) Brightness Sun altitude
Rises 16:43:05 0° 166° (SSE) 3,370 6.9 -19.1°
Reaches altitude 10° 16:45:27 10° 164° (SSE) 2,448 6.2 -18.7°
Maximum altitude 16:50:55 71° 80° (E) 889 4.0 -17.7°
Drops below altitude 10° 16:56:22 10° 355° (N) 2,433 6.2 -16.6°
Sets 16:58:42 0° 353° (N) 3,348 6.9 -16.2°
